W2CJS Weather Reports


Display with metric or nautical units.
time (UTC)temp
F
wind
direction
speed
MPH
gust
MPH
rain 1hr
in
rain 24hr
in
rain mn
in
humidity
%
barometer
mb
20260902185003 70 307 1.0 5.0 0.00 0.00 0.00 82 1017.3
20260902184024 70 54 1.0 9.0 0.00 0.00 0.00 84 1017.4
20260902183003 68 61 2.0 8.0 0.00 0.00 0.00 88 1017.6
20260902182004 67 89 1.0 4.0 0.00 0.00 0.00 88 1017.9
20260902181003 67 41 0.0 3.0 0.00 0.00 0.00 87 1018.0
20260902180005 67 55 1.0 4.0 0.00 0.00 0.00 86 1018.1
20260902175003 67 61 1.0 3.0 0.00 0.00 0.00 86 1018.0
20260902174003 68 65 1.0 4.0 0.00 0.00 0.00 86 1018.0
20260902173003 68 51 1.0 4.0 0.00 0.00 0.00 85 1018.1
20260902172024 68 314 1.0 3.0 0.00 0.00 0.00 85 1018.1
20260902171024 68 27 1.0 4.0 0.00 0.00 0.00 85 1018.0
20260902170003 69 38 1.0 3.0 0.00 0.00 0.00 84 1017.8
20260902165003 70 13 1.0 5.0 0.00 0.00 0.00 83 1017.7
20260902164003 70 284 1.0 6.0 0.00 0.00 0.00 83 1017.8
20260902163003 70 305 1.0 3.0 0.00 0.00 0.00 83 1017.6
20260902162004 70 351 1.0 3.0 0.00 0.00 0.00 83 1017.5
20260902161003 70 38 1.0 5.0 0.00 0.00 0.00 82 1017.6
20260902160005 71 250 0.0 2.0 0.00 0.00 0.00 83 1017.8
20260902155024 71 250 0.0 1.0 0.00 0.00 0.00 83 1017.9
20260902154024 71 40 1.0 5.0 0.00 0.00 0.00 83 1017.9
20260902153003 70 60 2.0 8.0 0.00 0.00 0.00 82 1017.8
20260902152003 71 48 1.0 4.0 0.00 0.00 0.00 83 1017.9
20260902151003 70 45 1.0 5.0 0.00 0.00 0.00 84 1018.3
20260902150003 70 69 1.0 4.0 0.00 0.00 0.00 83 1018.6
20260902145003 70 32 1.0 3.0 0.00 0.00 0.00 84 1018.6
20260902144003 69 53 0.0 3.0 0.00 0.00 0.00 85 1018.5
20260902143003 69 53 0.0 3.0 0.00 0.00 0.00 87 1018.8
20260902142003 68 0 0.0 0.0 0.00 0.00 0.00 86 1019.1
20260902141024 68 51 0.0 1.0 0.00 0.00 0.00 87 1019.2
20260902140003 68 0 0.0 0.0 0.00 0.00 0.00 89 1018.9
20260902135003 67 38 0.0 3.0 0.00 0.00 0.00 89 1018.6
20260902134003 67 31 0.0 3.0 0.00 0.00 0.00 88 1018.6
20260902133003 66 66 2.0 6.0 0.00 0.00 0.00 89 1018.4
20260902132003 66 63 0.0 3.0 0.00 0.01 0.00 91 1018.6
20260902131003 65 0 0.0 0.0 0.00 0.03 0.00 92 1018.7
20260902130003 65 63 0.0 3.0 0.00 0.03 0.00 93 1018.8
20260902125003 65 45 1.0 4.0 0.00 0.03 0.00 93 1018.4
20260902124003 64 34 0.0 4.0 0.00 0.03 0.00 93 1018.3
20260902123003 64 84 1.0 6.0 0.00 0.05 0.00 95 1018.3
20260902122003 64 0 0.0 0.0 0.00 0.05 0.00 96 1018.3
20260902121003 64 279 1.0 5.0 0.00 0.05 0.00 96 1018.2
20260902120003 64 46 0.0 2.0 0.00 0.05 0.00 97 1018.3
20260902115003 63 0 0.0 0.0 0.00 0.05 0.00 97 1018.0
20260902114003 63 0 0.0 0.0 0.00 0.05 0.00 97 1018.1
20260902113024 63 0 0.0 0.0 0.00 0.05 0.00 97 1017.9
20260902112003 62 0 0.0 0.0 0.00 0.05 0.00 97 1017.9
20260902111003 62 0 0.0 0.0 0.00 0.05 0.00 96 1017.9
20260902110004 62 0 0.0 0.0 0.00 0.05 0.00 96 1018.0
20260902105003 62 0 0.0 0.0 0.00 0.05 0.00 96 1018.2
20260902104003 62 0 0.0 0.0 0.00 0.05 0.00 96 1018.1
20260902103003 62 46 0.0 1.0 0.00 0.05 0.00 96 1018.2
20260902102003 62 46 0.0 2.0 0.00 0.05 0.00 96 1018.2
20260902101003 62 0 0.0 0.0 0.00 0.07 0.00 96 1018.1
20260902100003 62 46 0.0 2.0 0.00 0.07 0.00 96 1018.1
20260902095003 61 0 0.0 0.0 0.00 0.07 0.00 96 1018.1
20260902094024 61 0 0.0 0.0 0.00 0.07 0.00 96 1018.1
20260902093003 61 0 0.0 0.0 0.00 0.07 0.00 96 1018.1
20260902092003 62 46 0.0 3.0 0.00 0.07 0.00 96 1018.1
20260902091024 61 0 0.0 0.0 0.00 0.07 0.00 96 1018.1
20260902090003 61 0 0.0 0.0 0.00 0.07 0.00 96 1018.4
20260902085003 61 0 0.0 0.0 0.00 0.07 0.00 96 1018.2
20260902084003 60 0 0.0 0.0 0.00 0.08 0.00 96 1018.2
20260902083003 60 0 0.0 0.0 0.00 0.09 0.00 96 1018.1
20260902082003 60 0 0.0 0.0 0.00 0.10 0.00 96 1018.5
20260902081003 60 0 0.0 0.0 0.00 0.12 0.00 96 1018.3
20260902080003 61 0 0.0 0.0 0.00 0.12 0.00 95 1018.4
20260902075003 61 0 0.0 0.0 0.00 0.12 0.00 95 1018.3
20260902074003 61 0 0.0 0.0 0.00 0.12 0.00 96 1018.2
20260902073003 61 0 0.0 0.0 0.00 0.12 0.00 96 1018.0
20260902072003 61 0 0.0 0.0 0.00 0.12 0.00 96 1017.9
20260902071003 61 0 0.0 0.0 0.00 0.12 0.00 95 1018.0
20260902070004 62 0 0.0 0.0 0.00 0.12 0.00 95 1018.1
20260902065024 62 0 0.0 0.0 0.00 0.12 0.00 95 1018.1
20260902064024 62 0 0.0 0.0 0.00 0.12 0.00 96 1018.2
20260902063003 62 0 0.0 0.0 0.00 0.12 0.00 95 1018.1
20260902062003 62 0 0.0 0.0 0.00 0.12 0.00 96 1018.0
20260902061003 62 0 0.0 0.0 0.00 0.12 0.00 96 1018.1
20260902060003 62 0 0.0 0.0 0.00 0.12 0.00 96 1018.2
20260902055003 62 0 0.0 0.0 0.00 0.12 0.00 96 1018.3
20260902054003 62 0 0.0 0.0 0.00 0.12 0.00 96 1018.3
20260902053024 62 0 0.0 0.0 0.00 0.12 0.00 96 1018.2
20260902052003 62 0 0.0 0.0 0.00 0.12 0.00 96 1018.1
20260902051003 62 0 0.0 0.0 0.00 0.12 0.00 96 1018.1
20260902050005 62 0 0.0 0.0 0.00 0.12 0.00 95 1017.9
20260902045003 62 0 0.0 0.0 0.00 0.12 0.00 95 1017.8
20260902044003 62 0 0.0 0.0 0.00 0.12 0.00 95 1017.7
20260902043003 62 0 0.0 0.0 0.00 0.12 0.00 95 1017.8
20260902042003 62 0 0.0 0.0 0.00 0.12 0.00 96 1017.8
20260902041003 62 0 0.0 0.0 0.00 0.12 0.00 96 1017.8
20260902040003 62 0 0.0 0.0 0.00 0.12 0.00 96 1017.7
20260902035003 62 0 0.0 0.0 0.00 0.12 0.12 95 1017.5
20260902034003 62 46 0.0 1.0 0.00 0.12 0.12 95 1017.4
20260902033003 62 0 0.0 0.0 0.00 0.12 0.12 95 1017.3
20260902032003 62 0 0.0 0.0 0.00 0.12 0.12 95 1017.5
20260902031003 62 0 0.0 0.0 0.00 0.12 0.12 95 1017.6
20260902030003 62 0 0.0 0.0 0.00 0.12 0.12 95 1017.5
20260902025003 62 46 0.0 1.0 0.00 0.12 0.12 95 1017.4
20260902024003 62 0 0.0 0.0 0.00 0.12 0.12 94 1017.4
20260902023003 62 0 0.0 0.0 0.00 0.12 0.12 94 1017.2
20260902022003 62 0 0.0 0.0 0.00 0.12 0.12 93 1017.1
20260902021003 62 0 0.0 0.0 0.00 0.12 0.12 93 1017.0
20260902020003 63 0 0.0 0.0 0.00 0.12 0.12 93 1017.0
20260902015003 63 46 0.0 1.0 0.00 0.12 0.12 93 1016.9
20260902014003 64 0 0.0 0.0 0.00 0.12 0.12 92 1017.0
20260902013003 64 0 0.0 0.0 0.00 0.12 0.12 92 1017.0
20260902012003 65 46 0.0 2.0 0.00 0.12 0.12 92 1016.9
20260902011003 65 46 0.0 3.0 0.00 0.12 0.12 92 1016.9
20260902010003 65 0 0.0 0.0 0.00 0.12 0.12 92 1016.9
20260902005003 65 0 0.0 0.0 0.00 0.12 0.12 92 1016.9
20260902004003 65 0 0.0 0.0 0.00 0.12 0.12 92 1016.8
20260902003003 65 0 0.0 0.0 0.00 0.12 0.12 92 1016.7
20260902002003 65 0 0.0 0.0 0.00 0.12 0.12 91 1016.6
20260902001003 66 0 0.0 0.0 0.00 0.12 0.12 92 1016.6
20260902000003 66 0 0.0 0.0 0.00 0.12 0.12 91 1016.6
20260901235003 66 0 0.0 0.0 0.00 0.12 0.12 91 1016.5
20260901234003 66 0 0.0 0.0 0.00 0.12 0.12 91 1016.4
20260901233003 67 0 0.0 0.0 0.00 0.12 0.12 91 1016.7
20260901232003 67 0 0.0 0.0 0.00 0.12 0.12 91 1016.7
20260901231024 67 0 0.0 0.0 0.00 0.12 0.12 90 1016.6
20260901230003 68 0 0.0 0.0 0.00 0.12 0.12 88 1016.7
20260901225024 68 0 0.0 0.0 0.00 0.12 0.12 88 1016.4
20260901224003 68 0 0.0 0.0 0.00 0.12 0.12 87 1016.6
20260901223003 68 0 0.0 0.0 0.00 0.12 0.12 85 1016.4
20260901222003 69 0 0.0 0.0 0.00 0.12 0.12 85 1016.4
20260901221003 69 46 0.0 1.0 0.00 0.12 0.12 84 1016.3
20260901220003 69 49 1.0 4.0 0.00 0.12 0.12 83 1016.2
20260901215003 70 65 0.0 3.0 0.00 0.12 0.12 82 1016.1
20260901214003 70 71 1.0 5.0 0.00 0.12 0.12 82 1016.1
20260901213003 70 64 2.0 5.0 0.00 0.12 0.12 82 1016.0
20260901212003 70 53 1.0 3.0 0.00 0.12 0.12 82 1015.9
20260901211003 70 70 1.0 5.0 0.00 0.12 0.12 81 1016.0
20260901210003 70 80 1.0 4.0 0.00 0.12 0.12 82 1016.1
20260901205003 70 81 1.0 3.0 0.00 0.12 0.12 82 1016.3
20260901204003 70 81 1.0 5.0 0.00 0.12 0.12 82 1016.1
20260901203003 71 81 0.0 3.0 0.00 0.12 0.12 83 1016.0
20260901202003 70 81 0.0 2.0 0.00 0.12 0.12 84 1016.1
20260901201003 69 81 1.0 4.0 0.00 0.12 0.12 86 1016.1
20260901200003 68 81 0.0 3.0 0.00 0.12 0.12 86 1016.1
20260901195003 68 82 0.0 2.0 0.00 0.12 0.12 87 1016.1
20260901194003 68 63 1.0 5.0 0.00 0.12 0.12 86 1016.2
20260901193024 68 79 2.0 7.0 0.00 0.12 0.12 86 1016.2
20260901192003 69 39 1.0 8.0 0.00 0.12 0.12 86 1016.3
20260901191003 69 9 0.0 6.0 0.00 0.12 0.12 85 1016.3
20260901190003 69 68 1.0 5.0 0.00 0.12 0.12 85 1016.2